Location: Vinland
(47.7731°N, 122.6974°W)
Time: 01:38:01
(UTC+00:00)

Transit 4A - Pass Details

Date: 04 April 2023
Orbit: 864 x 979 km, 66.8° (Epoch: 29 May)

Event Time Altitude Azimuth Distance (km) Brightness Sun altitude
Exits shadow 12:30:52 10° 211° (SSW) 2,513 9.7 -12.5°
Reaches altitude 10° 12:30:52 10° 211° (SSW) 2,508 9.7 -12.5°
Maximum altitude 12:36:41 86° 123° (ESE) 889 7.8 -11.6°
Drops below altitude 10° 12:42:39 10° 35° (NE) 2,581 11.2 -10.7°
Sets 12:45:12 0° 35° (NE) 3,542 12.0 -10.3°
